Weather History for KAOH - July, 2013

Change the Weather History Date:

Tuesday, July 9, 2013

  Actual Average (KFDY) Record (KFDY)
Temperature  
Mean Temperature 80 °F -  
Max Temperature 88 °F 84 °F 98 °F (1988)
Min Temperature 73 °F 65 °F 49 °F (1961)
Cooling Degree Days 14    
Growing Degree Days 30 (Base 50)    
Moisture  
Dew Point 71 °F    
Average Humidity 77    
Maximum Humidity 88    
Minimum Humidity 65    
Precipitation  
Precipitation 0.18 in - - ()
Sea Level Pressure  
Sea Level Pressure 30.00 in    
Wind  
Wind Speed 10 mph (WSW)    
Max Wind Speed 16 mph    
Max Gust Speed 26 mph    
Visibility 9 miles    
Events Rain , Thunderstorm    
Averages and records for this station are not official NWS values.
T = Trace of Precipitation, MM = Missing Value Source: NWS Daily Summary

Daily Weather History Graph

Daily Weather History Graph

Search for Another Location

Airport or City:

Trip Planner

Search our weather history database for the weather conditions in past years. The results will help you decide how hot, cold, wet, or windy it might be!

Date:

Astronomy

Jul. 09, 2013 Rise Set
Actual Time 6:13 AM EDT 9:08 PM EDT
Civil Twilight 5:40 AM EDT 9:41 PM EDT
Nautical Twilight 4:59 AM EDT 10:22 PM EDT
Astronomical Twilight 4:11 AM EDT 11:10 PM EDT
Moon 7:37 AM EDT (7/9) 9:44 PM EDT (7/9)
Length of Visible Light 16h 00m
Length of Day
14h 55m
New Moon, 2% of the Moon is Illuminated
Jul 9
New Moon
Jul 15
First Quarter
Jul 22
Full
Jul 29
Last Quarter
Aug 6
New

Hourly Weather History & Observations

Time (EDT) Temp. Heat Index Dew Point Humidity Pressure Visibility Wind Dir Wind Speed Gust Speed Precip Events Conditions
12:53 AM 75.9 °F - 71.1 °F 85% 30.01 in 9.0 mi SW 9.2 mph - N/A   Mostly Cloudy
1:53 AM 78.1 °F - 70.0 °F 76% 30.00 in 10.0 mi SW 16.1 mph - N/A   Mostly Cloudy
2:53 AM 77.0 °F - 70.0 °F 79% 30.00 in 10.0 mi SW 9.2 mph - N/A   Mostly Cloudy
3:53 AM 75.9 °F - 70.0 °F 82% 30.00 in 9.0 mi WSW 11.5 mph - N/A   Overcast
4:53 AM 75.9 °F - 70.0 °F 82% 30.01 in 9.0 mi SW 8.1 mph - N/A   Mostly Cloudy
5:53 AM 75.0 °F - 69.1 °F 82% 30.01 in 9.0 mi WSW 6.9 mph - N/A   Mostly Cloudy
6:53 AM 75.0 °F - 69.1 °F 82% 30.02 in 8.0 mi WSW 9.2 mph - N/A   Mostly Cloudy
7:18 AM 75.2 °F - 69.8 °F 83% 30.05 in 9.0 mi WSW 9.2 mph - N/A   Overcast
7:27 AM 75.2 °F - 69.8 °F 83% 30.05 in 9.0 mi WSW 10.4 mph - N/A   Overcast
7:39 AM 75.2 °F - 69.8 °F 83% 30.05 in 9.0 mi WSW 9.2 mph - N/A   Overcast
7:53 AM 75.9 °F - 70.0 °F 82% 30.03 in 9.0 mi WSW 9.2 mph - N/A   Overcast
8:53 AM 78.1 °F - 71.1 °F 79% 30.03 in 10.0 mi WSW 10.4 mph - N/A   Overcast
9:06 AM 78.8 °F - 71.6 °F 78% 30.05 in 10.0 mi WSW 10.4 mph - N/A   Overcast
9:42 AM 78.8 °F - 71.6 °F 78% 30.05 in 10.0 mi WSW 10.4 mph - N/A   Mostly Cloudy
9:53 AM 79.0 °F - 72.0 °F 79% 30.03 in 10.0 mi West 9.2 mph - N/A   Mostly Cloudy
10:36 AM 80.6 °F 84.6 °F 71.6 °F 74% 30.05 in 10.0 mi West 10.4 mph - N/A   Mostly Cloudy
10:53 AM 82.0 °F 87.4 °F 73.0 °F 74% 30.02 in 10.0 mi WSW 8.1 mph - N/A   Scattered Clouds
11:53 AM 84.0 °F 90.2 °F 73.0 °F 69% 30.01 in 10.0 mi WSW 11.5 mph - N/A   Mostly Cloudy
12:53 PM 86.0 °F 93.8 °F 73.9 °F 67% 30.01 in 10.0 mi WSW 13.8 mph - N/A   Scattered Clouds
1:53 PM 86.0 °F 93.8 °F 73.9 °F 67% 29.99 in 10.0 mi SW 13.8 mph - N/A   Overcast
2:53 PM 86.0 °F 95.1 °F 75.0 °F 70% 29.98 in 10.0 mi WSW 9.2 mph - N/A   Clear
3:53 PM 84.9 °F 92.1 °F 73.9 °F 69% 29.96 in 10.0 mi West 9.2 mph - 0.00 in   Clear
4:53 PM 86.0 °F 93.0 °F 73.0 °F 65% 29.96 in 10.0 mi West 12.7 mph - N/A   Scattered Clouds
5:53 PM 82.9 °F 89.4 °F 73.9 °F 74% 29.97 in 10.0 mi West 9.2 mph - 0.01 in Rain Light Rain
6:53 PM 84.0 °F 91.2 °F 73.9 °F 72% 29.94 in 10.0 mi SW 8.1 mph - 0.00 in   Mostly Cloudy
7:04 PM 82.4 °F 88.2 °F 73.4 °F 74% 29.97 in 10.0 mi WSW 8.1 mph - N/A Thunderstorm Thunderstorm
7:15 PM 82.4 °F 88.2 °F 73.4 °F 74% 29.97 in 10.0 mi SW 5.8 mph - N/A Thunderstorm Mostly Cloudy
7:38 PM 82.4 °F 88.2 °F 73.4 °F 74% 29.97 in 10.0 mi SW 8.1 mph - N/A Thunderstorm Mostly Cloudy
7:53 PM 82.9 °F 89.4 °F 73.9 °F 74% 29.95 in 10.0 mi SW 5.8 mph - N/A Thunderstorm Mostly Cloudy
8:02 PM 82.4 °F 88.2 °F 73.4 °F 74% 29.97 in 10.0 mi SW 5.8 mph - N/A   Mostly Cloudy
8:15 PM 82.4 °F 88.2 °F 73.4 °F 74% 29.98 in 10.0 mi SW 9.2 mph - N/A Thunderstorm Overcast
8:30 PM 82.4 °F 86.3 °F 69.8 °F 66% 29.98 in 10.0 mi SW 8.1 mph - N/A   Overcast
8:46 PM 80.6 °F 83.9 °F 69.8 °F 70% 29.98 in 10.0 mi SSW 6.9 mph - N/A Thunderstorm Thunderstorm
8:53 PM 80.1 °F 82.9 °F 69.1 °F 69% 29.96 in 10.0 mi South 5.8 mph - N/A Thunderstorm Thunderstorm
9:08 PM 75.2 °F - 68.0 °F 78% 30.00 in 1.5 mi WSW 11.5 mph 26.5 mph 0.08 in Rain , Thunderstorm Heavy Thunderstorms and Rain
9:13 PM 73.4 °F - 68.0 °F 83% 30.00 in 0.5 mi West 5.8 mph - 0.16 in Rain , Thunderstorm Heavy Thunderstorms and Rain
9:20 PM 73.4 °F - 68.0 °F 83% 29.99 in 1.0 mi Calm Calm - 0.16 in Rain , Thunderstorm Light Thunderstorms and Rain
9:28 PM 73.4 °F - 69.8 °F 88% 29.99 in 10.0 mi NNE 5.8 mph - 0.16 in Thunderstorm Thunderstorm
9:53 PM 73.9 °F - 69.1 °F 85% 29.97 in 10.0 mi SSE 5.8 mph - 0.16 in   Partly Cloudy
10:53 PM 75.9 °F - 70.0 °F 82% 29.97 in 10.0 mi South 9.2 mph - 0.01 in   Mostly Cloudy
11:53 PM 75.9 °F - 69.1 °F 79% 29.94 in 10.0 mi South 9.2 mph - N/A   Overcast